Regional Weather Roundup
Issued by NWS Midland/Odessa, TX

Skip options and go directly to product.
Home | Oldest Version | Next Version | Current Version | All | Text Only | Save Text | Print | Product List | Glossary On

Skip product version selection by date and time.   
677
ASUS44 KMAF 262110
RWRMAF
MIDLAND AREA WEATHER ROUNDUP
NATIONAL WEATHER SERVICE MIDLAND TX
300 PM CST WED NOV 26 2014

...IN SOUTHWEST TEXAS AND SOUTHEAST NEW MEXICO...

CITY           SKY/WX    TMP DP  RH WIND       PRES   REMARKS
ALPINE         SUNNY     69  19  14 CALM      30.30F
ANDREWS        FAIR      58  28  31 E5        30.25
ARTESIA        NOT AVBL
BIG SPRING     SUNNY     61  30  30 N6        30.26S
CARLSBAD       SUNNY     68  21  16 VRB7      30.20F
DRYDEN           N/A     74  12   9 SW13      30.18F
FORT STOCKTON  SUNNY     69  16  13 N7        30.23S
GUAD PASS      NOT AVBL
HOBBS          SUNNY     57  27  30 E6        30.25F
MARFA          SUNNY     64  19  17 W15       30.29S
MIDLAND AIRPK  SUNNY     60  28  29 CALM      30.25R
MIDLAND INTL   SUNNY     60  26  27 NE5       30.24S
ODESSA         SUNNY     61  24  24 VRB5      30.25S
PECOS          SUNNY     71  22  16 CALM      30.20S
PRESIDIO       FAIR      66  17  15 SW6       30.25F
SEMINOLE       SUNNY     57  28  32 CALM      30.26R
SNYDER         SUNNY     57  33  39 NE9       30.25S
WINK           SUNNY     69  18  14 VRB3      30.20F
$$
...OTHER STATIONS IN TEXAS...

CITY           SKY/WX    TMP DP  RH WIND       PRES   REMARKS
ABILENE        SUNNY     60  33  36 N13       30.23R
AMARILLO       SUNNY     51  23  33 N9        30.26S
AUSTIN         SUNNY     76  33  21 W8        30.15R
BROWNSVILLE    SUNNY     74  44  34 S14       30.23F
CORPUS CHRISTI SUNNY     72  44  36 SW12      30.20F
DALLAS FTW     MOSUNNY   63  33  32 N13       30.18R
DEL RIO        SUNNY     73  22  14 VRB3      30.18S
EL PASO        SUNNY     64  16  15 VRB3      30.27F
HOUSTON INT    SUNNY     72  35  25 W12       30.17R
LUBBOCK        MOSUNNY   57  27  31 CALM      30.24S
SAN ANGELO     SUNNY     67  23  19 N5        30.21F
SAN ANTONIO    SUNNY     73  33  23 SW10      30.18S
WACO           SUNNY     68  27  21 NW10      30.18R
WICHITA FALLS  NOT AVBL
$$
...OTHER LOCATIONS IN NEW MEXICO...

CITY           SKY/WX    TMP DP  RH WIND       PRES   REMARKS
ALAMAGORDO     SUNNY     64  21  19 N16G23    30.27F
ALBUQUERQUE    MOSUNNY   56  20  24 CALM      30.33F
CANNON AFB     SUNNY     54  28  36 S3        30.24F
CLOVIS         SUNNY     52  27  37 CALM      30.24S
HOLLOMAN AFB   SUNNY     64  21  19 NW7       30.26F
ROSWELL        SUNNY     66  22  18 S6        30.21F
RUIDOSO        SUNNY     54  19  26 NW21      30.33S
SANTA FE       SUNNY     52  20  28 CALM      30.33F
TRUTH OR CONSE SUNNY     61  20  20 CALM      30.29F
TUCUMCARI      MOSUNNY   51  26  37 CALM      30.23F
$$

USA.gov is the U.S. government's official web portal to all federal, state and local government web resources and services.